Weather History for St. Petersburg Airport, FL

Change the Weather History Date:

Sunday, January 22, 2012

  Actual Average Record
Temperature  
Mean Temperature 65 °F -  
Max Temperature 75 °F 69 °F 85 °F (1962)
Min Temperature 55 °F 53 °F 29 °F (1985)
Growing Degree Days 15 (Base 50)    
Moisture  
Dew Point 58 °F    
Average Humidity 83    
Maximum Humidity 97    
Minimum Humidity 45    
Precipitation  
Precipitation 0.00 in - - ()
Sea Level Pressure  
Sea Level Pressure 30.12 in    
Wind  
Wind Speed 1 mph (East)    
Max Wind Speed 7 mph    
Max Gust Speed -    
Visibility 9 miles    
Events      
Averages and records for this station are not official NWS values.
T = Trace of Precipitation, MM = Missing Value Source: NWS Daily Summary

Daily Weather History Graph

Daily Weather History Graph

Search for Another Location

Airport:

Trip Planner

Search our weather history database for the weather conditions in past years. The results will help you decide how hot, cold, wet, or windy it might be!

Date:

Astronomy

Jan. 22, 2012 Rise Set
Actual Time 7:21 AM EST 6:02 PM EST
Civil Twilight 6:56 AM EST 6:27 PM EST
Nautical Twilight 6:28 AM EST 6:56 PM EST
Astronomical Twilight 6:00 AM EST 7:24 PM EST
Moon 6:37 AM EST 5:41 PM EST
Length of Visible Light 11h 30m
Length of Day
10h 40m
Waning Crescent, 0% of the Moon is Illuminated
Jan 22
Waning Crescent
Jan 23
New
Jan 30
First Quarter
Feb 7
Full
Feb 14
Last Quarter

Hourly Weather History & Observations

Time (EST) Temp. Dew Point Humidity Pressure Visibility Wind Dir Wind Speed Gust Speed Precip Events Conditions
12:53 AM 57.0 °F 55.0 °F 93% 30.11 in 9.0 mi Calm Calm - N/A   Partly Cloudy
1:53 AM 57.0 °F 54.0 °F 89% 30.10 in 8.0 mi Calm Calm - N/A   Clear
2:53 AM 57.0 °F 55.9 °F 96% 30.09 in 8.0 mi Calm Calm - N/A   Clear
3:53 AM 57.9 °F 57.0 °F 97% 30.09 in 8.0 mi Calm Calm - N/A   Clear
4:53 AM 57.0 °F 55.0 °F 93% 30.08 in 7.0 mi Calm Calm - N/A   Clear
5:53 AM 57.0 °F 54.0 °F 89% 30.10 in 8.0 mi Calm Calm - N/A   Clear
6:53 AM 55.9 °F 55.0 °F 97% 30.11 in 8.0 mi Calm Calm - N/A   Partly Cloudy
7:53 AM 55.0 °F 54.0 °F 96% 30.12 in 8.0 mi Calm Calm - N/A   Partly Cloudy
8:53 AM 63.0 °F 60.1 °F 90% 30.13 in 10.0 mi Calm Calm - N/A   Clear
9:53 AM 69.1 °F 62.1 °F 78% 30.14 in 10.0 mi ENE 3.5 mph - N/A   Clear
10:53 AM 69.8 °F 62.6 °F 78% 30.15 in 10.0 mi ENE 3.5 mph - N/A   Clear
11:53 AM 73.9 °F 63.0 °F 68% 30.14 in 10.0 mi East 3.5 mph - N/A   Clear
12:53 PM 75.0 °F 61.0 °F 62% 30.12 in 10.0 mi ESE 5.8 mph - N/A   Clear
1:53 PM 75.0 °F 62.1 °F 64% 30.10 in 10.0 mi East 6.9 mph - N/A   Clear
2:53 PM 75.9 °F 59.0 °F 56% 30.09 in 10.0 mi NE 4.6 mph - N/A   Clear
3:53 PM 75.9 °F 53.1 °F 45% 30.09 in 10.0 mi Calm Calm - N/A   Clear
4:53 PM 73.0 °F 61.0 °F 66% 30.10 in 10.0 mi WSW 5.8 mph - N/A   Clear
5:53 PM 72.0 °F 61.0 °F 68% 30.10 in 10.0 mi Calm Calm - N/A   Clear
6:53 PM 66.9 °F 61.0 °F 81% 30.11 in 10.0 mi Calm Calm - N/A   Clear
7:53 PM 61.0 °F 59.0 °F 93% 30.13 in 10.0 mi Calm Calm - N/A   Clear
8:53 PM 61.0 °F 59.0 °F 93% 30.14 in 9.0 mi Calm Calm - N/A   Clear
9:53 PM 62.1 °F 60.1 °F 93% 30.15 in 10.0 mi Calm Calm - N/A   Clear
10:25 PM 62.6 °F 60.8 °F 94% 30.15 in 1.8 mi Calm Calm - N/A   Clear
10:43 PM 60.8 °F 59.0 °F 94% 30.15 in 3.0 mi Calm Calm - N/A   Clear
10:53 PM 60.1 °F 57.9 °F 93% 30.15 in 8.0 mi East 3.5 mph - N/A   Clear
11:53 PM 61.0 °F 59.0 °F 93% 30.14 in 10.0 mi ESE 4.6 mph - N/A   Clear